| time (UTC) | temp C | wind direction | speed KPH | gust KPH | rain 1hr cm | rain 24hr cm | rain mn cm | humidity % | barometer mb |
| 20260507030517 | 9 | 0.0 | 1.6 | 0.00 | 0.00 | 0.00 | 77 | 1002.2 | |
| 20260507025517 | 9 | 0.0 | 1.6 | 0.00 | 0.00 | 0.00 | 77 | 1002.4 | |
| 20260507024537 | 9 | 0.0 | 1.6 | 0.00 | 0.00 | 0.00 | 77 | 1002.3 | |
| 20260507023517 | 9 | 0.0 | 3.2 | 0.00 | 0.00 | 0.00 | 76 | 1002.3 | |
| 20260507022517 | 9 | 0.0 | 3.2 | 0.00 | 0.00 | 0.00 | 75 | 1002.2 | |
| 20260507021537 | 9 | 0.0 | 1.6 | 0.00 | 0.00 | 0.00 | 75 | 1002.2 | |
| 20260507020517 | 10 | 0.0 | 1.6 | 0.00 | 0.00 | 0.00 | 75 | 1002.2 | |
| 20260507015517 | 10 | 0.0 | 3.2 | 0.00 | 0.00 | 0.00 | 74 | 1002.2 | |
| 20260507014517 | 10 | 0.0 | 4.8 | 0.00 | 0.00 | 0.00 | 74 | 1002.2 | |
| 20260507013558 | 10 | 0.0 | 1.6 | 0.00 | 0.00 | 0.00 | 74 | 1002.2 | |
| 20260507012517 | 10 | 0.0 | 3.2 | 0.00 | 0.00 | 0.00 | 72 | 1002.3 | |
| 20260507011517 | 10 | 225 | 1.6 | 4.8 | 0.00 | 0.00 | 0.00 | 72 | 1002.2 |
| 20260507010517 | 10 | 225 | 1.6 | 4.8 | 0.00 | 0.00 | 0.00 | 72 | 1002.2 |
| 20260507005517 | 10 | 225 | 1.6 | 6.4 | 0.00 | 0.00 | 0.00 | 70 | 1002.3 |
| 20260507004517 | 10 | 225 | 3.2 | 8.0 | 0.00 | 0.00 | 0.00 | 69 | 1002.2 |
| 20260507003517 | 10 | 225 | 1.6 | 6.4 | 0.00 | 0.00 | 0.00 | 68 | 1002.2 |
| 20260507002537 | 10 | 225 | 3.2 | 6.4 | 0.00 | 0.00 | 0.00 | 68 | 1002.1 |
| 20260507001537 | 10 | 225 | 1.6 | 6.4 | 0.00 | 0.00 | 0.00 | 67 | 1002.0 |
| 20260507000517 | 10 | 225 | 1.6 | 6.4 | 0.00 | 0.00 | 0.00 | 67 | 1001.9 |
| 20260506235537 | 10 | 225 | 3.2 | 6.4 | 0.00 | 0.00 | 0.00 | 67 | 1001.8 |
| 20260506234517 | 10 | 225 | 1.6 | 6.4 | 0.00 | 0.00 | 0.00 | 67 | 1001.6 |
| 20260506233517 | 10 | 225 | 3.2 | 8.0 | 0.00 | 0.00 | 0.00 | 67 | 1001.6 |
| 20260506232537 | 10 | 225 | 3.2 | 9.7 | 0.00 | 0.00 | 0.00 | 66 | 1001.5 |
| 20260506231537 | 11 | 225 | 3.2 | 8.0 | 0.00 | 0.00 | 0.00 | 65 | 1001.4 |
| 20260506230517 | 11 | 225 | 1.6 | 6.4 | 0.00 | 0.00 | 0.00 | 65 | 1001.3 |
| 20260506225557 | 11 | 225 | 3.2 | 6.4 | 0.00 | 0.00 | 0.00 | 64 | 1001.4 |
| 20260506224537 | 11 | 225 | 3.2 | 11.3 | 0.00 | 0.00 | 0.00 | 63 | 1001.5 |
| 20260506223517 | 11 | 225 | 1.6 | 4.8 | 0.00 | 0.00 | 0.00 | 63 | 1001.6 |
| 20260506222517 | 11 | 225 | 3.2 | 6.4 | 0.00 | 0.00 | 0.00 | 62 | 1001.6 |
| 20260506221517 | 11 | 225 | 1.6 | 6.4 | 0.00 | 0.00 | 0.00 | 62 | 1001.5 |
| 20260506220557 | 12 | 225 | 1.6 | 6.4 | 0.00 | 0.00 | 0.00 | 61 | 1001.4 |
| 20260506215517 | 12 | 225 | 1.6 | 6.4 | 0.00 | 0.00 | 0.00 | 60 | 1001.4 |
| 20260506214537 | 12 | 225 | 1.6 | 4.8 | 0.00 | 0.00 | 0.00 | 61 | 1001.5 |
| 20260506213517 | 12 | 225 | 3.2 | 8.0 | 0.00 | 0.00 | 0.00 | 60 | 1001.4 |
| 20260506212517 | 12 | 225 | 3.2 | 8.0 | 0.00 | 0.00 | 0.00 | 58 | 1001.4 |
| 20260506211517 | 12 | 225 | 3.2 | 8.0 | 0.00 | 0.00 | 0.00 | 56 | 1001.4 |
| 20260506210517 | 12 | 225 | 1.6 | 4.8 | 0.00 | 0.00 | 0.00 | 57 | 1001.4 |
| 20260506205516 | 12 | 225 | 3.2 | 6.4 | 0.00 | 0.00 | 0.00 | 56 | 1001.3 |
| 20260506204517 | 13 | 225 | 1.6 | 3.2 | 0.00 | 0.00 | 0.00 | 57 | 1001.2 |
| 20260506203517 | 13 | 203 | 3.2 | 9.7 | 0.00 | 0.00 | 0.00 | 56 | 1001.2 |
| 20260506202517 | 13 | 225 | 3.2 | 8.0 | 0.00 | 0.00 | 0.00 | 57 | 1001.0 |
| 20260506201517 | 13 | 225 | 3.2 | 8.0 | 0.00 | 0.00 | 0.00 | 56 | 1001.1 |
| 20260506200517 | 12 | 225 | 3.2 | 9.7 | 0.00 | 0.00 | 0.00 | 57 | 1001.2 |
| 20260506195517 | 12 | 225 | 3.2 | 6.4 | 0.00 | 0.00 | 0.00 | 57 | 1001.3 |
| 20260506194517 | 12 | 225 | 3.2 | 8.0 | 0.00 | 0.00 | 0.00 | 57 | 1001.5 |
| 20260506193516 | 12 | 225 | 3.2 | 8.0 | 0.00 | 0.00 | 0.00 | 56 | 1001.6 |
| 20260506192517 | 13 | 225 | 4.8 | 16.1 | 0.00 | 0.00 | 0.00 | 53 | 1001.7 |
| 20260506191516 | 13 | 225 | 4.8 | 11.3 | 0.00 | 0.00 | 0.00 | 58 | 1001.7 |
| 20260506190516 | 13 | 225 | 1.6 | 6.4 | 0.00 | 0.00 | 0.00 | 57 | 1001.8 |
| 20260506185517 | 12 | 225 | 3.2 | 9.7 | 0.00 | 0.00 | 0.00 | 59 | 1001.8 |
| 20260506184517 | 12 | 225 | 3.2 | 9.7 | 0.00 | 0.00 | 0.00 | 60 | 1001.7 |
| 20260506183516 | 12 | 225 | 4.8 | 11.3 | 0.00 | 0.00 | 0.00 | 60 | 1001.9 |
| 20260506182516 | 12 | 225 | 3.2 | 8.0 | 0.00 | 0.00 | 0.00 | 61 | 1001.9 |
| 20260506181516 | 12 | 225 | 1.6 | 4.8 | 0.00 | 0.00 | 0.00 | 64 | 1002.0 |
| 20260506180516 | 12 | 225 | 3.2 | 8.0 | 0.00 | 0.00 | 0.00 | 62 | 1002.0 |
| 20260506175516 | 12 | 225 | 4.8 | 11.3 | 0.00 | 0.00 | 0.00 | 64 | 1002.1 |
| 20260506174516 | 11 | 225 | 3.2 | 8.0 | 0.00 | 0.00 | 0.00 | 65 | 1002.2 |
| 20260506173516 | 11 | 225 | 1.6 | 8.0 | 0.00 | 0.00 | 0.00 | 64 | 1002.3 |
| 20260506172516 | 11 | 225 | 4.8 | 9.7 | 0.00 | 0.00 | 0.00 | 68 | 1002.3 |
| 20260506171536 | 10 | 225 | 4.8 | 8.0 | 0.00 | 0.00 | 0.00 | 68 | 1002.3 |
| 20260506170516 | 10 | 225 | 4.8 | 9.7 | 0.00 | 0.00 | 0.00 | 70 | 1002.2 |
| 20260506165516 | 9 | 225 | 1.6 | 6.4 | 0.00 | 0.00 | 0.00 | 70 | 1002.3 |
| 20260506164516 | 9 | 248 | 3.2 | 8.0 | 0.00 | 0.00 | 0.00 | 69 | 1002.5 |
| 20260506163516 | 9 | 225 | 3.2 | 4.8 | 0.00 | 0.00 | 0.00 | 70 | 1002.5 |
| 20260506162516 | 9 | 225 | 3.2 | 9.7 | 0.00 | 0.00 | 0.00 | 69 | 1002.6 |
| 20260506161516 | 9 | 203 | 4.8 | 9.7 | 0.00 | 0.00 | 0.00 | 68 | 1002.4 |
| 20260506160516 | 10 | 203 | 4.8 | 12.9 | 0.00 | 0.00 | 0.00 | 68 | 1002.5 |
| 20260506155516 | 10 | 225 | 4.8 | 9.7 | 0.00 | 0.00 | 0.00 | 68 | 1002.6 |
| 20260506154516 | 10 | 225 | 3.2 | 8.0 | 0.00 | 0.00 | 0.00 | 68 | 1002.6 |
| 20260506153516 | 10 | 225 | 1.6 | 3.2 | 0.00 | 0.00 | 0.00 | 67 | 1002.8 |
| 20260506152536 | 9 | 225 | 1.6 | 6.4 | 0.00 | 0.00 | 0.00 | 67 | 1002.7 |
| 20260506151516 | 10 | 225 | 3.2 | 8.0 | 0.00 | 0.00 | 0.00 | 67 | 1002.9 |
| 20260506150518 | 9 | 0.0 | 3.2 | 0.00 | 0.00 | 0.00 | 69 | 1002.7 | |
| 20260506145518 | 9 | 0.0 | 3.2 | 0.00 | 0.00 | 0.00 | 68 | 1003.0 | |
| 20260506144518 | 9 | 225 | 1.6 | 3.2 | 0.00 | 0.00 | 0.00 | 69 | 1003.0 |
| 20260506143518 | 9 | 225 | 4.8 | 12.9 | 0.00 | 0.00 | 0.00 | 68 | 1002.9 |
| 20260506142518 | 8 | 225 | 1.6 | 4.8 | 0.00 | 0.00 | 0.00 | 68 | 1002.9 |
| 20260506141518 | 8 | 225 | 3.2 | 8.0 | 0.00 | 0.00 | 0.00 | 68 | 1002.9 |
| 20260506140518 | 8 | 225 | 3.2 | 6.4 | 0.00 | 0.00 | 0.00 | 68 | 1002.6 |
| 20260506135538 | 8 | 225 | 3.2 | 6.4 | 0.00 | 0.00 | 0.00 | 69 | 1002.7 |
| 20260506134518 | 8 | 225 | 4.8 | 11.3 | 0.00 | 0.00 | 0.00 | 67 | 1002.6 |
| 20260506133538 | 8 | 225 | 3.2 | 8.0 | 0.00 | 0.00 | 0.00 | 65 | 1002.5 |
| 20260506132518 | 8 | 225 | 1.6 | 4.8 | 0.00 | 0.00 | 0.00 | 63 | 1002.5 |
| 20260506131518 | 8 | 225 | 3.2 | 6.4 | 0.00 | 0.00 | 0.00 | 63 | 1002.6 |
| 20260506130518 | 8 | 203 | 3.2 | 8.0 | 0.00 | 0.00 | 0.00 | 62 | 1002.5 |
| 20260506125518 | 8 | 203 | 3.2 | 6.4 | 0.00 | 0.00 | 0.00 | 63 | 1002.5 |
| 20260506124518 | 8 | 203 | 3.2 | 6.4 | 0.00 | 0.00 | 0.00 | 60 | 1002.6 |
| 20260506123518 | 8 | 203 | 3.2 | 8.0 | 0.00 | 0.00 | 0.00 | 57 | 1002.6 |
| 20260506122518 | 8 | 203 | 4.8 | 11.3 | 0.00 | 0.00 | 0.00 | 66 | 1002.6 |
| 20260506121538 | 8 | 0.0 | 0.0 | 0.00 | 0.00 | 0.00 | 65 | 1002.7 | |
| 20260506120518 | 8 | 0.0 | 0.0 | 0.00 | 0.00 | 0.00 | 65 | 1002.5 | |
| 20260506115518 | 8 | 0.0 | 0.0 | 0.00 | 0.00 | 0.00 | 65 | 1002.6 | |
| 20260506114518 | 8 | 0.0 | 0.0 | 0.00 | 0.00 | 0.00 | 65 | 1002.7 | |
| 20260506113517 | 8 | 0.0 | 0.0 | 0.00 | 0.00 | 0.00 | 66 | 1002.7 | |
| 20260506112518 | 8 | 0.0 | 0.0 | 0.00 | 0.00 | 0.00 | 66 | 1002.6 | |
| 20260506111518 | 8 | 0.0 | 0.0 | 0.00 | 0.00 | 0.00 | 66 | 1002.5 | |
| 20260506110518 | 8 | 0.0 | 0.0 | 0.00 | 0.00 | 0.00 | 66 | 1002.4 | |
| 20260506105518 | 8 | 0.0 | 0.0 | 0.00 | 0.00 | 0.00 | 65 | 1002.4 | |
| 20260506104538 | 8 | 0.0 | 0.0 | 0.00 | 0.00 | 0.00 | 64 | 1002.3 | |
| 20260506103517 | 8 | 0.0 | 0.0 | 0.00 | 0.00 | 0.00 | 63 | 1002.4 | |
| 20260506102517 | 8 | 0.0 | 0.0 | 0.00 | 0.00 | 0.00 | 64 | 1002.4 | |
| 20260506101517 | 8 | 0.0 | 0.0 | 0.00 | 0.00 | 0.00 | 64 | 1002.5 | |
| 20260506100538 | 8 | 0.0 | 0.0 | 0.00 | 0.00 | 0.00 | 62 | 1002.6 | |
| 20260506095517 | 8 | 0.0 | 0.0 | 0.00 | 0.00 | 0.00 | 62 | 1002.7 | |
| 20260506094517 | 8 | 0.0 | 0.0 | 0.00 | 0.00 | 0.00 | 62 | 1002.7 | |
| 20260506093517 | 8 | 0.0 | 0.0 | 0.00 | 0.00 | 0.00 | 63 | 1002.4 | |
| 20260506092517 | 8 | 0.0 | 0.0 | 0.00 | 0.00 | 0.00 | 62 | 1002.3 | |
| 20260506091517 | 8 | 0.0 | 0.0 | 0.00 | 0.00 | 0.00 | 62 | 1002.4 | |
| 20260506090517 | 8 | 0.0 | 0.0 | 0.00 | 0.00 | 0.00 | 63 | 1002.2 | |
| 20260506085517 | 8 | 0.0 | 0.0 | 0.00 | 0.00 | 0.00 | 63 | 1002.3 | |
| 20260506084517 | 8 | 0.0 | 0.0 | 0.00 | 0.00 | 0.00 | 62 | 1002.3 | |
| 20260506083517 | 8 | 0.0 | 0.0 | 0.00 | 0.00 | 0.00 | 62 | 1002.5 | |
| 20260506082558 | 8 | 0.0 | 0.0 | 0.00 | 0.00 | 0.00 | 61 | 1002.5 | |
| 20260506081517 | 8 | 0.0 | 0.0 | 0.00 | 0.00 | 0.00 | 60 | 1002.4 | |
| 20260506080518 | 8 | 0.0 | 0.0 | 0.00 | 0.00 | 0.00 | 60 | 1002.2 | |
| 20260506073517 | 8 | 0.0 | 0.0 | 0.00 | 0.00 | 0.00 | 61 | 1002.3 | |
| 20260506072517 | 8 | 0.0 | 0.0 | 0.00 | 0.00 | 0.00 | 61 | 1002.4 | |
| 20260506071537 | 8 | 0.0 | 0.0 | 0.00 | 0.00 | 0.00 | 61 | 1002.5 | |
| 20260506070537 | 8 | 0.0 | 0.0 | 0.00 | 0.00 | 0.00 | 60 | 1002.6 | |
| 20260506062517 | 8 | 0.0 | 0.0 | 0.00 | 0.00 | 0.00 | 57 | 1002.2 | |
| 20260506061517 | 8 | 0.0 | 0.0 | 0.00 | 0.00 | 0.00 | 56 | 1002.3 | |
| 20260506060537 | 8 | 0.0 | 0.0 | 0.00 | 0.00 | 0.00 | 56 | 1002.3 | |
| 20260506050517 | 9 | 0.0 | 0.0 | 0.00 | 0.00 | 0.00 | 55 | 1002.3 | |
| 20260506044517 | 10 | 0.0 | 0.0 | 0.00 | 0.00 | 0.00 | 53 | 1002.3 | |
| 20260506043517 | 10 | 0.0 | 0.0 | 0.00 | 0.00 | 0.00 | 52 | 1002.1 | |
| 20260506042517 | 10 | 0.0 | 0.0 | 0.00 | 0.00 | 0.00 | 53 | 1002.2 | |
| 20260506041517 | 10 | 0.0 | 0.0 | 0.00 | 0.00 | 0.00 | 54 | 1002.2 | |
| 20260506040517 | 10 | 0.0 | 0.0 | 0.00 | 0.00 | 0.00 | 53 | 1002.1 | |
| 20260506035538 | 10 | 0.0 | 0.0 | 0.00 | 0.00 | 0.00 | 53 | 1001.9 | |
| 20260506034518 | 10 | 0.0 | 0.0 | 0.00 | 0.00 | 0.00 | 54 | 1001.9 | |
| 20260506033518 | 10 | 0.0 | 0.0 | 0.00 | 0.00 | 0.00 | 53 | 1001.9 | |
| 20260506032518 | 10 | 0.0 | 0.0 | 0.00 | 0.00 | 0.00 | 52 | 1002.0 | |
| 20260506031518 | 10 | 0.0 | 0.0 | 0.00 | 0.00 | 0.00 | 53 | 1001.9 |